Stations météo

réclame
Mon MeteoGroup
Pamplona/Noain, Espagne (8085): Température de l'air & dewpoint: 18.01.2018 12:00:00 - 24.01.2018 12:00:00 (CET)Pamplona/Noain, Espagne (8085): Vitesse du vent: 18.01.2018 12:00:00 - 24.01.2018 12:00:00 (CET)Pamplona/Noain, Espagne (8085): Direction du vent: 18.01.2018 12:00:00 - 24.01.2018 12:00:00 (CET)Pamplona/Noain, Espagne (8085): reduced air pressure: 18.01.2018 12:00:00 - 24.01.2018 12:00:00 (CET)Pamplona/Noain, Espagne (8085): visibility: 18.01.2018 12:00:00 - 24.01.2018 12:00:00 (CET)
Date & Time tt [°C] td [°C] ff [km/h] ff [knt] dd ppp [hPa] vv [km]
24.01.2018 12:00:00 8,0 8,0 0 0 N 1028,3 17
24.01.2018 11:00:00 5,3 5,3 0 0 N 1029,0 6
24.01.2018 10:00:00 2,6 2,6 0 0 N 1029,4 6
24.01.2018 09:00:00 2,5 2,5 0 0 N 1029,3 6
24.01.2018 08:00:00 2,0 2,0 0 0 N 1029,4 4,0
24.01.2018 07:00:00 2,3 2,3 0 0 N 1029,3 0,2
24.01.2018 06:00:00 2,9 2,9 0 0 N 1029,1 0,6
24.01.2018 05:00:00 3,5 3,5 0 0 N 1029,0 0,5
24.01.2018 04:00:00 4,2 4,2 0 0 N 1029,2 0,4
24.01.2018 03:00:00 4,8 4,8 0 0 N 1029,2 1,7
24.01.2018 02:00:00 5,8 5,8 0 0 N 1029,3 10
24.01.2018 01:00:00 7,2 7,2 4 2 SE 1029,5 24
24.01.2018 00:00:00 7,0 7,0 4 2 E 1029,8 23
23.01.2018 23:00:00 6,6 6,0 4 2 ESE 1029,9 18
23.01.2018 22:00:00 8,2 6,3 0 0 N 1029,6 15
23.01.2018 21:00:00 9,7 7,1 9 5 NNW 1029,5 30
23.01.2018 20:00:00 10,6 7,8 11 6 NW 1029,5 30
23.01.2018 19:00:00 11,6 8,3 16 9 NW 1029,3 10
23.01.2018 18:00:00 12,1 8,6 15 8 NNW 1028,9 30
23.01.2018 17:00:00 12,7 9,0 18 10 NW 1028,6 10
23.01.2018 16:00:00 13,1 8,7 21 11 NNW 1028,4 20
23.01.2018 15:00:00 13,4 9,3 18 10 NW 1028,0 30
23.01.2018 14:00:00 13,7 9,1 18 10 NNW 1028,4 30
23.01.2018 13:00:00 13,7 9,6 21 11 NW 1029,0 20
23.01.2018 12:00:00 13,7 10,4 15 8 NNW 1029,3 30
23.01.2018 11:00:00 11,9 11,9 4 2 - 1029,8 10
23.01.2018 10:00:00 11,0 11,0 16 9 NW 1029,9 10
23.01.2018 09:00:00 10,4 10,4 5 3 NW 1029,6 30
23.01.2018 08:00:00 10,4 10,4 8 4 NW 1029,2 9
23.01.2018 07:00:00 10,2 10,2 5 3 WNW 1028,9 15
23.01.2018 06:00:00 10,0 10,0 4 2 NW 1028,7 17
23.01.2018 05:00:00 9,9 9,9 0 0 N 1029,0 7
23.01.2018 04:00:00 10,1 10,1 4 2 W 1029,0 4,0
23.01.2018 03:00:00 10,1 10,1 4 2 WNW 1029,1 9
23.01.2018 02:00:00 10,0 10,0 2 1 WSW 1029,3 5
23.01.2018 01:00:00 10,2 10,2 5 3 WNW 1029,4 3,2
23.01.2018 00:00:00 10,3 10,3 8 4 NW 1029,5 4,8
22.01.2018 23:00:00 10,3 10,3 5 3 NW 1029,5 13
22.01.2018 22:00:00 10,5 9,9 4 2 W 1029,4 30
22.01.2018 21:00:00 10,6 9,2 4 2 WSW 1029,4 15
22.01.2018 20:00:00 10,8 8,7 0 0 N 1029,3 30
22.01.2018 19:00:00 11,2 8,4 8 4 N 1028,9 20
22.01.2018 18:00:00 11,7 8,4 16 9 NW 1028,4 10
22.01.2018 17:00:00 12,3 8,6 16 9 N 1028,0 30
22.01.2018 16:00:00 12,7 8,3 21 11 N 1027,5 30
22.01.2018 15:00:00 13,3 7,7 9 5 N 1027,3 30
22.01.2018 14:00:00 13,3 7,3 16 9 N 1027,9 30
22.01.2018 13:00:00 14,3 7,2 18 10 N 1028,1 30
22.01.2018 12:00:00 13,4 7,8 8 4 N 1028,8 30
22.01.2018 11:00:00 11,5 8,0 4 2 NW 1029,2 30
22.01.2018 10:00:00 10,2 7,6 0 0 N 1029,1 20
22.01.2018 09:00:00 8,9 7,3 4 2 W 1029,0 22
22.01.2018 08:00:00 8,9 8,0 8 4 W 1028,6 24
22.01.2018 07:00:00 8,7 8,7 0 0 N 1028,3 15
22.01.2018 06:00:00 8,5 8,5 0 0 N 1028,3 15
22.01.2018 05:00:00 8,3 7,4 2 1 S 1028,5 15
22.01.2018 04:00:00 9,7 8,0 0 0 N 1028,6 22
22.01.2018 03:00:00 10,2 8,1 0 0 N 1028,6 30
22.01.2018 02:00:00 10,6 8,4 0 0 N 1028,9 10
22.01.2018 01:00:00 11,0 8,6 4 2 N 1029,2 30
22.01.2018 00:00:00 11,4 8,6 5 3 NW 1029,1 30
21.01.2018 23:00:00 11,6 8,5 8 4 NNW 1029,0 30
21.01.2018 22:00:00 11,1 8,3 2 1 N 1029,1 30
21.01.2018 21:00:00 11,7 8,5 8 4 NW 1029,4 30
21.01.2018 20:00:00 11,9 8,6 13 7 NNW 1029,1 30
21.01.2018 19:00:00 11,9 8,6 16 9 N 1028,8 30
21.01.2018 18:00:00 11,9 8,9 9 5 N 1028,6 30
21.01.2018 17:00:00 11,9 9,1 16 9 NNW 1028,5 30
21.01.2018 16:00:00 12,3 9,7 18 10 NNW 1028,1 20
21.01.2018 15:00:00 12,3 9,3 21 11 NNW 1027,9 30
21.01.2018 14:00:00 11,9 9,3 22 12 N 1028,1 30
21.01.2018 13:00:00 12,5 9,9 29 16 NNW 1028,0 20
21.01.2018 12:00:00 12,5 9,6 11 6 WNW 1028,4 10
21.01.2018 11:00:00 11,2 10,3 4 2 SSE 1028,2 30
21.01.2018 10:00:00 10,7 10,2 15 8 NW 1027,5 15
21.01.2018 09:00:00 10,1 9,8 18 10 NW 1027,0 19
21.01.2018 08:00:00 10,2 10,2 22 12 NW 1026,5 30
21.01.2018 07:00:00 10,1 10,1 21 11 NNW 1026,1 10
21.01.2018 06:00:00 10,3 10,3 18 10 NNW 1025,7 10
21.01.2018 05:00:00 10,0 10,0 11 6 NNW 1025,6 9
21.01.2018 04:00:00 10,1 10,1 22 12 NNW 1025,1 9
21.01.2018 03:00:00 10,2 10,2 22 12 NNW 1025,2 15
21.01.2018 02:00:00 10,4 9,5 22 12 NNW 1025,1 14
21.01.2018 01:00:00 10,7 9,1 16 9 NNW 1024,9 17
21.01.2018 00:00:00 10,7 8,8 18 10 NW 1024,5 27
20.01.2018 23:00:00 10,7 10,7 15 8 NNW 1024,5 30
20.01.2018 22:00:00 10,7 10,7 18 10 NNW 1024,4 9
20.01.2018 21:00:00 10,3 10,3 21 11 NNW 1023,9 9
20.01.2018 20:00:00 9,3 9,3 5 3 NNW 1023,9 8
20.01.2018 19:00:00 8,4 8,4 0 0 N 1023,9 6
20.01.2018 18:00:00 8,3 8,3 0 0 N 1023,5 7
20.01.2018 17:00:00 8,1 8,1 4 2 E 1023,4 3,0
20.01.2018 16:00:00 8,2 7,1 11 6 NE 1023,1 6
20.01.2018 15:00:00 8,8 6,6 9 5 NE 1022,6 9
20.01.2018 14:00:00 9,2 4,8 0 0 N 1023,2 25
20.01.2018 13:00:00 9,3 4,8 8 4 N 1023,9 25
20.01.2018 12:00:00 9,4 5,0 0 0 N 1024,3 10
20.01.2018 11:00:00 7,4 5,9 0 0 N 1024,7 21
20.01.2018 10:00:00 5,9 5,0 0 0 N 1024,9 10
20.01.2018 09:00:00 5,6 4,4 0 0 N 1024,6 23
20.01.2018 08:00:00 5,9 5,4 13 7 S 1024,6 27
20.01.2018 07:00:00 4,8 4,7 8 4 SE 1024,8 17
20.01.2018 06:00:00 4,7 3,8 4 2 SE 1024,9 20
20.01.2018 05:00:00 5,3 3,6 4 2 S 1025,6 21
20.01.2018 04:00:00 6,3 4,5 2 1 NW 1025,7 10
20.01.2018 03:00:00 6,6 4,9 8 4 NW 1026,2 20
20.01.2018 02:00:00 6,4 5,2 8 4 W 1026,3 30
20.01.2018 01:00:00 6,6 5,2 4 2 WNW 1026,6 28
20.01.2018 00:00:00 6,7 5,2 2 1 - 1026,7 10
19.01.2018 23:00:00 6,6 5,3 5 3 NNW 1026,4 17
19.01.2018 22:00:00 6,7 6,0 13 7 NNW 1026,1 20
19.01.2018 21:00:00 6,6 5,7 15 8 NW 1025,8 7
19.01.2018 20:00:00 6,9 4,8 16 9 NW 1025,5 12
19.01.2018 19:00:00 6,9 4,4 15 8 NW 1025,1 30
19.01.2018 18:00:00 7,4 4,7 18 10 NW 1024,7 8
19.01.2018 17:00:00 7,3 5,3 21 11 NNW 1023,7 27
19.01.2018 16:00:00 8,2 5,2 21 11 NNW 1023,4 30
19.01.2018 15:00:00 8,7 5,6 31 17 NNW 1022,7 30
19.01.2018 14:00:00 9,5 6,9 8 4 WNW 1022,3 30
19.01.2018 13:00:00 8,7 8,7 5 3 NNW 1023,2 9
19.01.2018 12:00:00 8,5 8,5 0 0 N 1023,2 3,5
19.01.2018 11:00:00 8,2 8,2 2 1 SSE 1023,0 8
19.01.2018 10:00:00 6,8 6,8 0 0 N 1022,9 10
19.01.2018 09:00:00 5,5 5,5 0 0 N 1023,3 1,4
19.01.2018 08:00:00 4,9 4,9 0 0 N 1023,1 1,9
19.01.2018 07:00:00 5,2 5,2 2 1 - 1022,6 2,1
19.01.2018 06:00:00 5,4 5,4 2 1 SSW 1023,0 1,2
19.01.2018 05:00:00 5,4 5,4 0 0 N 1023,0 3,2
19.01.2018 04:00:00 5,7 5,7 2 1 - 1023,1 3,2
19.01.2018 03:00:00 5,7 5,7 0 0 N 1023,5 3,7
19.01.2018 02:00:00 5,7 5,4 0 0 N 1023,9 2,7
19.01.2018 01:00:00 5,7 5,4 2 1 SE 1024,2 9
19.01.2018 00:00:00 5,3 5,2 2 1 - 1024,3 9
18.01.2018 23:00:00 4,8 4,4 4 2 SSE 1024,5 9
18.01.2018 22:00:00 4,5 3,8 0 0 N 1024,9 10
18.01.2018 21:00:00 3,6 2,7 2 1 - 1024,6 8
18.01.2018 20:00:00 4,9 3,4 2 1 N 1023,7 9
18.01.2018 19:00:00 6,0 4,0 2 1 WNW 1023,2 10
18.01.2018 18:00:00 7,3 4,1 4 2 WNW 1022,9 10
18.01.2018 17:00:00 9,2 4,8 0 0 N 1022,6 10
18.01.2018 16:00:00 9,5 4,9 2 1 - 1023,0 10
18.01.2018 15:00:00 8,0 5,0 2 1 - - 9
18.01.2018 14:00:00 6,5 5,2 0 0 N 1025,0 8
18.01.2018 13:00:00 4,3 4,3 0 0 N 1026,5 4,0
18.01.2018 12:00:00 2,8 2,8 2 1 - 1027,6 1,5

tt = Température de l'air
td = dewpoint
ff = Vitesse du vent
dd = Direction du vent
ppp = reduced air pressure
vv = visibility

stations d'obs. à proximité